[Iaude] MPEC P15: 2024 OD2 [a=1.16,e=0.17,i=19.0,H=21.6]

mpec at cfa.harvard.edu mpec at cfa.harvard.edu
Thu Aug 1 12:39:55 EDT 2024


M.P.E.C. 2024-P15                                Issued 2024 August 1, 16:34 UT

     The Minor Planet Electronic Circulars contain information on unusual
         minor planets, routine data on comets and natural satellites,
         and occasional editorial announcements.  They are published
    on behalf of Division F of the International Astronomical Union by the
          Minor Planet Center, Smithsonian Astrophysical Observatory,
                          Cambridge, MA 02138, U.S.A.
			  
             Prepared using the Tamkin Foundation Computer Network

                              MPC at CFA.HARVARD.EDU
            URL https://www.minorplanetcenter.net/    ISSN 1523-6714

                                    2024 OD2                                    


Observations:
     K24O02D* C2024 07 28.29466218 17 45.742+32 12 20.96         22.50wXEP015F52
     K24O02D  C2024 07 28.31057818 17 44.400+32 12 10.20         22.35wXEP015F52
     K24O02D  C2024 07 28.31858418 17 43.725+32 12 04.68         22.26wXEP015F52
     K24O02D  C2024 07 28.42723618 17 34.555+32 10 48.17         22.39GVEP015F52
     K24O02D  C2024 07 28.42806418 17 34.479+32 10 47.23         22.41GVEP015F52
     K24O02D KC2024 07 29.13372018 16 42.11 +32 02 20.0          22.0 GVEP015H21
     K24O02D KC2024 07 29.14672818 16 41.07 +32 02 10.6          21.7 GVEP015H21
     K24O02D KC2024 07 29.14817218 16 40.96 +32 02 09.5          21.6 GVEP015H21
     K24O02D KC2024 07 29.15105918 16 40.73 +32 02 07.2          22.1 GVEP015H21
     K24O02D KC2024 07 29.15481318 16 40.42 +32 02 04.5          22.3 GVEP015H21
     K24O02D 3C2024 07 29.26367718 16 33.002+32 00 50.01         22.32GVEP015T14
     K24O02D 3C2024 07 29.26488518 16 32.907+32 00 49.14         22.29GVEP015T14
     K24O02D 3C2024 07 29.26610418 16 32.809+32 00 48.34         22.32GVEP015T14
     K24O02D 3C2024 08 01.30268718 13 06.423+31 20 37.45         22.33GVEP015T14
     K24O02D 3C2024 08 01.30389418 13 06.339+31 20 36.45         22.33GVEP015T14
     K24O02D 3C2024 08 01.30510118 13 06.256+31 20 35.42         22.34GVEP015T14

Observer details:
F52 Pan-STARRS 2, Haleakala.  Observers J. Herman, T. Lowe, P. Minguez, A.
    Schultz, I. Smith.  Measurers K. Chambers, T. de Boer, J. Fairlamb, H.
    Gao, M. Huber, C.-C. Lin, E. Magnier, Y. Ramanjooloo, R. Wainscoat, R.
    Weryk.  1.8-m Ritchey-Chretien + CCD.
H21 Astronomical Research Observatory, Westfield.  Observer R. Holmes.
    Measurers T. Linder, R. Holmes.  1.3-m f/4.0 astrograph + CCD.
T14 Canada-France-Hawaii Telescope, Maunakea.  Observers R. Wainscoat, J.
    Silva, H. Flewelling, V. Khatu.  Measurers R. Weryk, R. Wainscoat.  3.6-m
    f/4.1 reflector + CCD.

Orbital elements:
2024 OD2                                                 Earth MOID = 0.0747 AU
Epoch 2024 Oct. 17.0 TT = JDT 2460600.5                 Alexandersen            
M 252.13965              (2000.0)            P               Q                  
n   0.78733338     Peri.  251.26473     -0.36357543     -0.90552483             
a   1.1615296      Node   222.20342     +0.92916834     -0.33567333             
e   0.1653659      Incl.   19.00118     +0.06677658     -0.25951531             
P   1.25           H   21.62          G   0.15           U   8                  
Residuals in seconds of arc
240728 F52  0.0   0.0     240729 H21  0.2-  0.1-    240729 T14  0.1+  0.1+
240728 F52  0.0   0.1+    240729 H21  0.1-  0.1-    240801 T14  0.0   0.0
240728 F52  0.0   0.0     240729 H21  0.1-  0.4-    240801 T14  0.0   0.0
240728 F52  0.1-  0.0     240729 H21  0.2-  0.3-    240801 T14  0.0   0.0
240728 F52  0.2-  0.3-    240729 T14  0.1+  0.0
240729 H21  0.2-  0.1-    240729 T14  0.1+  0.0

Ephemeris:
2024 OD2                 a,e,i = 1.16, 0.17, 19                  q = 0.9695
Date    TT    R. A. (2000) Decl.     Delta      r    Elong.  Phase     V
2024 07 02    19 06 18.9 +31 59 00   0.4816  1.3504   124.7    38.2    22.2
...
2024 07 17    18 35 43.7 +33 31 01   0.4996  1.3536   122.8    39.1    22.3
...
2024 07 25    18 22 18.2 +32 46 16   0.5143  1.3528   120.7    40.2    22.4
...
2024 07 31    18 14 30.4 +31 38 34   0.5271  1.3511   118.9    41.1    22.5
2024 08 01    18 13 25.2 +31 24 51   0.5294  1.3507   118.6    41.3    22.5
2024 08 02    18 12 23.9 +31 10 31   0.5317  1.3503   118.2    41.5    22.5
...
2024 08 08    18 07 37.0 +29 32 55   0.5461  1.3474   116.2    42.5    22.6
...
2024 08 16    18 04 50.6 +26 58 47   0.5667  1.3419   113.3    43.9    22.7
...
2024 08 31    18 09 44.5 +21 28 46   0.6076  1.3273   107.7    46.4    22.9

M. P. C. Staff               (C) Copyright 2024 MPC           M.P.E.C. 2024-P15





More information about the Iaude mailing list